{"data":{"norad_id":52697,"intl_designator":"2022-053AT","name":"STARLINK-4018","alt_names":[],"object_type":"PAYLOAD","status":"ACTIVE","operator":null,"country":"US","launch_date":"2022-05-18","launch_site_code":"AFETR","launch_vehicle":null,"mission":null,"orbit_class":"UNKNOWN","rcs_meters":null,"size_class":null,"mass_kg":null,"dimensions":null,"purposes":["comms"],"wikipedia_slug":null,"has_3d_model":false,"image_url":null,"decayed_at":null,"tle_current":{"epoch":"2026-09-19T23:14:59.398656Z","epoch_age_seconds":112342,"freshness":"FRESH","line1":"1 52697U 22053AT  26262.96874304  .00000474  00000+0  24480-4 0  9996","line2":"2 52697  53.1617 350.3892 0000848  76.5382 283.5716 15.35399452240504","mean_motion":15.35399452,"eccentricity":8.48e-5,"inclination_deg":53.1617,"raan_deg":350.3892,"arg_perigee_deg":76.5382,"mean_anomaly_deg":283.5716,"bstar":2.448e-5,"rev_number":24050,"period_min":93.786668877878,"perigee_km":459.15441826175,"apogee_km":460.3141212291,"semimajor_km":6837.8712697454,"source":"CELESTRAK","updated_at":"2026-09-20T09:00:40.107769Z"}}}